Weather in Bryce Canyon National Park

United States     37°37′47″N   112°09′55″W
temp.,
°C
wind,
m/s
gust,
m/s
humid.,
%
clouds,
%
prec.,
mm/h
press.,
hPa
HPBL,
m
16 may, sun
sun1600:00+8w11340 0.0 100911
03:00+7ese223315 0.0 100910
06:00+7se333196 0.0 101018
09:00+12s610250 0.0 10091596
12:00+15sse810235 0.0 10082743
15:00+16s991951 0.0 10063628
18:00+15sw89162 0.0 10053271
21:00+10sw342497 0.0 100856
17 may, mon
mon1700:00+7nw4736100 0.0 1011159
03:00+5wnw2243100 0.0 101023
06:00+4nnw22525 0.0 101114
09:00+9nw23455 0.0 1011535
12:00+13wnw853398 0.0 10092458
15:00+11nnw354894 0.6 10111035
18:00+11nw684415 1.1 1009712
21:00+8nw611653 0.0 1012439
18 may, tue
tue1800:00+5nnw3382100 0.0 101349
03:00+4wnw228169 0.0 101217
06:00+3nnw2383100 0.0 101430
09:00+9nw3556100 0.0 1012379
12:00+16nnw4530100 0.0 10091684
15:00+18nw8728100 0.0 10072670
18:00+18nnw892546 0.1 10062652
21:00+12nw33380 0.0 100828
19 may, wed
wed1900:00+10sw11450 0.0 101010
03:00+9ssw11465 0.0 100911
06:00+8ssw22500 0.0 100913
09:00+15wsw36315 0.0 1008655
12:00+19sw9921100 0.0 10062985
15:00+20sw1112209 0.0 10043487
18:00+18sw1214191 0.0 10032439
21:00+13sw8152527 0.0 1005705
20 may, thu
thu2000:00+9sw24292 0.0 100769
03:00+9s411330 0.0 1007265
06:00+6se44493 0.0 100852
09:00+12sse712318 0.0 10061523
12:00+16s9142430 0.0 10042304
15:00+18ssw111619100 0.0 10013966
18:00+16ssw12152129 0.0 10003215
21:00+12ssw1319222 0.0 10021348